Time,TemperatureF,DewpointF,PressureIn,WindDirection,WindDirectionDegrees,WindSpeedMPH,WindSpeedGustMPH,Humidity,HourlyPrecipIn,Conditions,Clouds,dailyrainin,SoftwareType,DateUTC
2013-01-21 00:00:00,17.5,10.7,30.32,NNW,327,0.0,-999.0,66,0.00,,,0.00,Custom/Perl,2013-01-21 06:00:00,
2013-01-21 00:05:00,17.5,10.9,30.32,NW,318,0.0,-999.0,67,0.00,,,0.00,Custom/Perl,2013-01-21 06:05:00,
2013-01-21 00:10:00,17.4,10.8,30.32,NNE,18,1.0,-999.0,67,0.00,,,0.00,Custom/Perl,2013-01-21 06:10:00,
2013-01-21 00:15:00,17.7,10.9,30.32,North,2,1.0,-999.0,66,0.00,,,0.00,Custom/Perl,2013-01-21 06:15:00,
2013-01-21 00:20:00,17.8,11.0,30.32,NNW,333,0.0,-999.0,66,0.00,,,0.00,Custom/Perl,2013-01-21 06:20:00,
2013-01-21 00:26:00,17.9,11.1,30.32,NW,321,1.0,-999.0,66,0.00,,,0.00,Custom/Perl,2013-01-21 06:26:00,
2013-01-21 00:31:00,17.9,11.1,30.31,NW,321,1.0,-999.0,66,0.00,,,0.00,Custom/Perl,2013-01-21 06:31:00,
2013-01-21 00:36:00,18.0,11.2,30.31,NW,326,2.0,-999.0,66,0.00,,,0.00,Custom/Perl,2013-01-21 06:36:00,
2013-01-21 00:41:00,18.1,11.1,30.32,NW,326,2.0,-999.0,65,0.00,,,0.00,Custom/Perl,2013-01-21 06:41:00,
2013-01-21 00:47:00,18.1,11.1,30.32,NNW,328,1.0,-999.0,65,0.00,,,0.00,Custom/Perl,2013-01-21 06:47:00,
2013-01-21 00:52:00,18.0,11.0,30.32,NNE,25,3.0,-999.0,65,0.00,,,0.00,Custom/Perl,2013-01-21 06:52:00,
2013-01-21 00:57:00,17.9,10.9,30.31,NNW,335,0.0,-999.0,65,0.00,,,0.00,Custom/Perl,2013-01-21 06:57:00,
2013-01-21 01:02:00,17.7,10.7,30.31,North,4,0.0,-999.0,65,0.00,,,0.00,Custom/Perl,2013-01-21 07:02:00,
2013-01-21 01:08:00,17.7,10.9,30.31,NE,41,2.0,-999.0,66,0.00,,,0.00,Custom/Perl,2013-01-21 07:08:00,
2013-01-21 01:13:00,17.5,10.7,30.32,NNW,330,0.0,-999.0,66,0.00,,,0.00,Custom/Perl,2013-01-21 07:13:00,
2013-01-21 01:18:00,17.4,10.6,30.31,NNE,23,0.0,-999.0,66,0.00,,,0.00,Custom/Perl,2013-01-21 07:18:00,
2013-01-21 01:23:00,17.2,10.6,30.31,North,8,0.0,-999.0,67,0.00,,,0.00,Custom/Perl,2013-01-21 07:23:00,
2013-01-21 01:29:00,17.0,10.4,30.31,NNW,338,0.0,-999.0,67,0.00,,,0.00,Custom/Perl,2013-01-21 07:29:00,
2013-01-21 01:34:00,16.9,10.3,30.32,NNW,338,0.0,-999.0,67,0.00,,,0.00,Custom/Perl,2013-01-21 07:34:00,
2013-01-21 01:39:00,16.7,10.3,30.32,NW,317,1.0,-999.0,68,0.00,,,0.00,Custom/Perl,2013-01-21 07:39:00,
2013-01-21 01:44:00,16.5,10.3,30.33,NW,307,0.0,-999.0,69,0.00,,,0.00,Custom/Perl,2013-01-21 07:44:00,
2013-01-21 01:50:00,16.3,10.1,30.33,NNW,342,0.0,-999.0,69,0.00,,,0.00,Custom/Perl,2013-01-21 07:50:00,
2013-01-21 01:55:00,16.0,10.0,30.33,North,8,1.0,-999.0,70,0.00,,,0.00,Custom/Perl,2013-01-21 07:55:00,
2013-01-21 02:00:00,16.0,10.0,30.33,NNW,346,1.0,-999.0,70,0.00,,,0.00,Custom/Perl,2013-01-21 08:00:00,
2013-01-21 02:05:00,16.0,10.0,30.33,NW,308,0.0,-999.0,70,0.00,,,0.00,Custom/Perl,2013-01-21 08:05:00,
2013-01-21 02:11:00,15.9,10.1,30.33,NW,318,0.0,-999.0,71,0.00,,,0.00,Custom/Perl,2013-01-21 08:11:00,
2013-01-21 02:16:00,15.9,10.1,30.33,NW,319,2.0,-999.0,71,0.00,,,0.00,Custom/Perl,2013-01-21 08:16:00,
2013-01-21 02:22:00,15.9,10.1,30.34,NNW,347,0.0,-999.0,71,0.00,,,0.00,Custom/Perl,2013-01-21 08:22:00,
2013-01-21 02:27:00,16.0,10.4,30.34,NNW,333,1.0,-999.0,72,0.00,,,0.00,Custom/Perl,2013-01-21 08:27:00,
2013-01-21 02:32:00,16.0,10.4,30.34,NW,314,2.0,-999.0,72,0.00,,,0.00,Custom/Perl,2013-01-21 08:32:00,
2013-01-21 02:38:00,16.0,10.4,30.34,NW,312,1.0,-999.0,72,0.00,,,0.00,Custom/Perl,2013-01-21 08:38:00,
2013-01-21 02:43:00,15.9,10.3,30.34,NNE,22,2.0,-999.0,72,0.00,,,0.00,Custom/Perl,2013-01-21 08:43:00,
2013-01-21 02:48:00,16.0,10.4,30.35,NW,316,0.0,-999.0,72,0.00,,,0.00,Custom/Perl,2013-01-21 08:48:00,
2013-01-21 02:53:00,15.9,10.5,30.35,NW,307,4.0,-999.0,73,0.00,,,0.00,Custom/Perl,2013-01-21 08:53:00,
2013-01-21 02:58:00,15.8,10.4,30.35,WNW,298,1.0,-999.0,73,0.00,,,0.00,Custom/Perl,2013-01-21 08:58:00,
2013-01-21 03:04:00,15.6,10.2,30.35,NW,310,2.0,-999.0,73,0.00,,,0.00,Custom/Perl,2013-01-21 09:04:00,
2013-01-21 03:09:00,15.6,10.4,30.35,NNE,13,0.0,-999.0,74,0.00,,,0.00,Custom/Perl,2013-01-21 09:09:00,
2013-01-21 03:14:00,15.6,10.4,30.34,North,9,1.0,-999.0,74,0.00,,,0.00,Custom/Perl,2013-01-21 09:14:00,
2013-01-21 03:20:00,15.5,10.3,30.34,NNE,24,0.0,-999.0,74,0.00,,,0.00,Custom/Perl,2013-01-21 09:20:00,
2013-01-21 03:25:00,15.3,10.1,30.33,NNE,15,0.0,-999.0,74,0.00,,,0.00,Custom/Perl,2013-01-21 09:25:00,
2013-01-21 03:30:00,15.2,10.0,30.33,NNE,15,0.0,-999.0,74,0.00,,,0.00,Custom/Perl,2013-01-21 09:30:00,
2013-01-21 03:35:00,14.9,9.9,30.33,NNE,15,0.0,-999.0,75,0.00,,,0.00,Custom/Perl,2013-01-21 09:35:00,
2013-01-21 03:40:00,14.5,9.5,30.33,NNE,15,0.0,-999.0,75,0.00,,,0.00,Custom/Perl,2013-01-21 09:40:00,
2013-01-21 03:45:00,14.1,9.3,30.32,NNE,15,0.0,-999.0,76,0.00,,,0.00,Custom/Perl,2013-01-21 09:45:00,
2013-01-21 03:51:00,13.6,9.0,30.32,NNE,15,0.0,-999.0,77,0.00,,,0.00,Custom/Perl,2013-01-21 09:51:00,
2013-01-21 03:56:00,13.3,8.7,30.32,NNE,15,0.0,-999.0,77,0.00,,,0.00,Custom/Perl,2013-01-21 09:56:00,
2013-01-21 04:01:00,12.8,8.4,30.32,NNE,15,0.0,-999.0,78,0.00,,,0.00,Custom/Perl,2013-01-21 10:01:00,
2013-01-21 04:07:00,12.5,8.1,30.31,NNE,15,0.0,-999.0,78,0.00,,,0.00,Custom/Perl,2013-01-21 10:07:00,
2013-01-21 04:12:00,12.1,7.9,30.32,NNE,15,0.0,-999.0,79,0.00,,,0.00,Custom/Perl,2013-01-21 10:12:00,
2013-01-21 04:18:00,11.7,7.9,30.31,NNE,15,0.0,-999.0,81,0.00,,,0.00,Custom/Perl,2013-01-21 10:18:00,
2013-01-21 04:23:00,11.5,7.7,30.31,NNE,15,0.0,-999.0,81,0.00,,,0.00,Custom/Perl,2013-01-21 10:23:00,
2013-01-21 04:28:00,11.6,8.0,30.31,NNE,15,0.0,-999.0,82,0.00,,,0.00,Custom/Perl,2013-01-21 10:28:00,
2013-01-21 04:33:00,11.6,7.8,30.31,NNE,15,0.0,-999.0,81,0.00,,,0.00,Custom/Perl,2013-01-21 10:33:00,
2013-01-21 04:39:00,11.4,7.8,30.31,NNE,15,0.0,-999.0,82,0.00,,,0.00,Custom/Perl,2013-01-21 10:39:00,
2013-01-21 04:44:00,11.3,7.7,30.31,NNE,15,0.0,-999.0,82,0.00,,,0.00,Custom/Perl,2013-01-21 10:44:00,
2013-01-21 04:49:00,11.2,7.4,30.31,NNE,15,0.0,-999.0,81,0.00,,,0.00,Custom/Perl,2013-01-21 10:49:00,
2013-01-21 04:54:00,11.0,7.4,30.31,NNE,15,0.0,-999.0,82,0.00,,,0.00,Custom/Perl,2013-01-21 10:54:00,
2013-01-21 04:59:00,11.1,7.5,30.31,NNE,15,0.0,-999.0,82,0.00,,,0.00,Custom/Perl,2013-01-21 10:59:00,
2013-01-21 05:05:00,11.2,7.8,30.31,NNE,15,0.0,-999.0,83,0.00,,,0.00,Custom/Perl,2013-01-21 11:05:00,
2013-01-21 05:10:00,11.4,8.2,30.31,NNE,15,0.0,-999.0,84,0.00,,,0.00,Custom/Perl,2013-01-21 11:10:00,
2013-01-21 05:15:00,11.6,8.4,30.31,NNE,15,0.0,-999.0,84,0.00,,,0.00,Custom/Perl,2013-01-21 11:15:00,
2013-01-21 05:20:00,11.9,8.7,30.31,NNE,15,0.0,-999.0,84,0.00,,,0.00,Custom/Perl,2013-01-21 11:20:00,
2013-01-21 05:26:00,12.0,8.6,30.30,NNE,15,0.0,-999.0,83,0.00,,,0.00,Custom/Perl,2013-01-21 11:26:00,
2013-01-21 05:31:00,12.4,9.0,30.30,NNE,15,0.0,-999.0,83,0.00,,,0.00,Custom/Perl,2013-01-21 11:31:00,
2013-01-21 05:37:00,12.9,9.5,30.30,NNE,15,0.0,-999.0,83,0.00,,,0.00,Custom/Perl,2013-01-21 11:37:00,
2013-01-21 05:42:00,13.3,9.9,30.30,NNE,15,0.0,-999.0,83,0.00,,,0.00,Custom/Perl,2013-01-21 11:42:00,
2013-01-21 05:47:00,13.8,10.4,30.30,NNE,15,0.0,-999.0,83,0.00,,,0.00,Custom/Perl,2013-01-21 11:47:00,
2013-01-21 05:52:00,14.2,10.6,30.30,NNE,15,0.0,-999.0,82,0.00,,,0.00,Custom/Perl,2013-01-21 11:52:00,
2013-01-21 05:58:00,14.6,10.8,30.30,NW,309,0.0,-999.0,81,0.00,,,0.00,Custom/Perl,2013-01-21 11:58:00,
2013-01-21 06:03:00,14.8,10.8,30.30,NW,306,0.0,-999.0,80,0.00,,,0.00,Custom/Perl,2013-01-21 12:03:00,
2013-01-21 06:08:00,15.0,10.8,30.31,NW,306,0.0,-999.0,79,0.00,,,0.00,Custom/Perl,2013-01-21 12:08:00,
2013-01-21 06:13:00,15.1,10.7,30.31,NW,306,0.0,-999.0,78,0.00,,,0.00,Custom/Perl,2013-01-21 12:13:00,
2013-01-21 06:18:00,15.1,10.7,30.30,NW,306,0.0,-999.0,78,0.00,,,0.00,Custom/Perl,2013-01-21 12:18:00,
2013-01-21 06:24:00,15.1,10.9,30.31,NW,306,0.0,-999.0,79,0.00,,,0.00,Custom/Perl,2013-01-21 12:24:00,
2013-01-21 06:29:00,15.3,10.9,30.31,North,4,0.0,-999.0,78,0.00,,,0.00,Custom/Perl,2013-01-21 12:29:00,
2013-01-21 06:34:00,15.5,11.1,30.32,NNW,342,0.0,-999.0,78,0.00,,,0.00,Custom/Perl,2013-01-21 12:34:00,
2013-01-21 06:39:00,15.6,11.2,30.32,NNW,328,0.0,-999.0,78,0.00,,,0.00,Custom/Perl,2013-01-21 12:39:00,
2013-01-21 06:45:00,15.8,11.4,30.32,NNW,329,0.0,-999.0,78,0.00,,,0.00,Custom/Perl,2013-01-21 12:45:00,
2013-01-21 06:50:00,16.0,11.6,30.32,North,356,0.0,-999.0,78,0.00,,,0.00,Custom/Perl,2013-01-21 12:50:00,
2013-01-21 06:55:00,16.2,11.8,30.32,NNW,346,0.0,-999.0,78,0.00,,,0.00,Custom/Perl,2013-01-21 12:55:00,
2013-01-21 07:00:00,16.3,11.9,30.32,North,354,0.0,-999.0,78,0.00,,,0.00,Custom/Perl,2013-01-21 13:00:00,
2013-01-21 07:05:00,16.3,11.9,30.32,North,352,0.0,-999.0,78,0.00,,,0.00,Custom/Perl,2013-01-21 13:05:00,
2013-01-21 07:11:00,16.3,11.9,30.32,North,352,0.0,-999.0,78,0.00,,,0.00,Custom/Perl,2013-01-21 13:11:00,
2013-01-21 07:16:00,16.4,12.0,30.33,North,352,0.0,-999.0,78,0.00,,,0.00,Custom/Perl,2013-01-21 13:16:00,
2013-01-21 07:21:00,16.5,12.1,30.32,North,352,0.0,-999.0,78,0.00,,,0.00,Custom/Perl,2013-01-21 13:21:00,
2013-01-21 07:26:00,16.5,12.1,30.32,North,352,0.0,-999.0,78,0.00,,,0.00,Custom/Perl,2013-01-21 13:26:00,
2013-01-21 07:32:00,16.4,11.8,30.32,North,352,0.0,-999.0,77,0.00,,,0.00,Custom/Perl,2013-01-21 13:32:00,
2013-01-21 07:37:00,16.3,12.1,30.32,North,352,0.0,-999.0,79,0.00,,,0.00,Custom/Perl,2013-01-21 13:37:00,
2013-01-21 07:42:00,16.2,12.0,30.32,North,352,0.0,-999.0,79,0.00,,,0.00,Custom/Perl,2013-01-21 13:42:00,
2013-01-21 07:47:00,15.9,11.5,30.32,North,352,0.0,-999.0,78,0.00,,,0.00,Custom/Perl,2013-01-21 13:47:00,
2013-01-21 07:53:00,15.8,11.6,30.33,North,352,0.0,-999.0,79,0.00,,,0.00,Custom/Perl,2013-01-21 13:53:00,
2013-01-21 07:58:00,15.8,11.6,30.33,North,352,0.0,-999.0,79,0.00,,,0.00,Custom/Perl,2013-01-21 13:58:00,
2013-01-21 08:03:00,16.0,11.8,30.33,NNE,32,0.0,-999.0,79,0.00,,,0.00,Custom/Perl,2013-01-21 14:03:00,
2013-01-21 08:08:00,16.4,12.2,30.33,North,4,0.0,-999.0,79,0.00,,,0.00,Custom/Perl,2013-01-21 14:08:00,
2013-01-21 08:13:00,16.6,12.4,30.33,NNE,17,1.0,-999.0,79,0.00,,,0.00,Custom/Perl,2013-01-21 14:13:00,
2013-01-21 08:19:00,16.8,12.4,30.33,NW,323,1.0,-999.0,78,0.00,,,0.00,Custom/Perl,2013-01-21 14:19:00,
2013-01-21 08:24:00,17.0,12.6,30.34,NW,313,0.0,-999.0,78,0.00,,,0.00,Custom/Perl,2013-01-21 14:24:00,
2013-01-21 08:29:00,17.1,12.7,30.34,NW,305,1.0,-999.0,78,0.00,,,0.00,Custom/Perl,2013-01-21 14:29:00,
2013-01-21 08:34:00,17.2,12.6,30.34,NW,320,1.0,-999.0,77,0.00,,,0.00,Custom/Perl,2013-01-21 14:34:00,
2013-01-21 08:40:00,17.4,12.8,30.34,WNW,283,0.0,-999.0,77,0.00,,,0.00,Custom/Perl,2013-01-21 14:40:00,
2013-01-21 08:45:00,17.5,12.7,30.34,NNE,17,1.0,-999.0,76,0.00,,,0.00,Custom/Perl,2013-01-21 14:45:00,
2013-01-21 08:50:00,17.6,12.8,30.34,NNW,347,0.0,-999.0,76,0.00,,,0.00,Custom/Perl,2013-01-21 14:50:00,
2013-01-21 08:55:00,17.6,12.8,30.34,North,10,1.0,-999.0,76,0.00,,,0.00,Custom/Perl,2013-01-21 14:55:00,
2013-01-21 09:01:00,17.8,12.8,30.34,North,359,1.0,-999.0,75,0.00,,,0.00,Custom/Perl,2013-01-21 15:01:00,
2013-01-21 09:06:00,17.8,12.8,30.34,WSW,252,1.0,-999.0,75,0.00,,,0.00,Custom/Perl,2013-01-21 15:06:00,
2013-01-21 09:11:00,18.0,12.8,30.34,NNE,27,1.0,-999.0,74,0.00,,,0.00,Custom/Perl,2013-01-21 15:11:00,
2013-01-21 09:16:00,18.1,12.9,30.35,WNW,293,1.0,-999.0,74,0.00,,,0.00,Custom/Perl,2013-01-21 15:16:00,
2013-01-21 09:21:00,18.3,12.9,30.35,WNW,295,2.0,-999.0,73,0.00,,,0.00,Custom/Perl,2013-01-21 15:21:00,
2013-01-21 09:27:00,18.3,12.9,30.35,NW,308,0.0,-999.0,73,0.00,,,0.00,Custom/Perl,2013-01-21 15:27:00,
2013-01-21 09:32:00,18.6,13.2,30.36,WNW,292,2.0,-999.0,73,0.00,,,0.00,Custom/Perl,2013-01-21 15:32:00,
2013-01-21 09:37:00,18.8,13.0,30.36,North,4,2.0,-999.0,71,0.00,,,0.00,Custom/Perl,2013-01-21 15:37:00,
2013-01-21 09:42:00,19.0,13.0,30.36,NNW,340,0.0,-999.0,70,0.00,,,0.00,Custom/Perl,2013-01-21 15:42:00,
2013-01-21 09:48:00,19.2,13.4,30.36,NW,311,1.0,-999.0,71,0.00,,,0.00,Custom/Perl,2013-01-21 15:48:00,
2013-01-21 09:53:00,19.4,13.4,30.36,NW,321,2.0,-999.0,70,0.00,,,0.00,Custom/Perl,2013-01-21 15:53:00,
2013-01-21 09:58:00,19.5,13.3,30.37,West,279,0.0,-999.0,69,0.00,,,0.00,Custom/Perl,2013-01-21 15:58:00,
2013-01-21 10:03:00,19.8,13.2,30.37,WNW,303,2.0,-999.0,67,0.00,,,0.00,Custom/Perl,2013-01-21 16:03:00,
2013-01-21 10:09:00,19.7,13.1,30.36,NNE,13,4.0,-999.0,67,0.00,,,0.00,Custom/Perl,2013-01-21 16:09:00,
2013-01-21 10:14:00,19.8,13.2,30.36,North,352,1.0,-999.0,67,0.00,,,0.00,Custom/Perl,2013-01-21 16:14:00,
2013-01-21 10:19:00,20.0,13.4,30.36,North,6,2.0,-999.0,67,0.00,,,0.00,Custom/Perl,2013-01-21 16:19:00,
2013-01-21 10:24:00,20.0,13.0,30.36,NNE,17,4.0,-999.0,65,0.00,,,0.00,Custom/Perl,2013-01-21 16:24:00,
2013-01-21 10:29:00,19.9,13.1,30.36,NW,316,0.0,-999.0,66,0.00,,,0.00,Custom/Perl,2013-01-21 16:29:00,
2013-01-21 10:35:00,20.0,13.0,30.36,West,266,2.0,-999.0,65,0.00,,,0.00,Custom/Perl,2013-01-21 16:35:00,
2013-01-21 10:40:00,20.1,12.9,30.36,NW,304,2.0,-999.0,64,0.00,,,0.00,Custom/Perl,2013-01-21 16:40:00,
2013-01-21 10:45:00,20.1,13.1,30.36,North,354,3.0,-999.0,65,0.00,,,0.00,Custom/Perl,2013-01-21 16:45:00,
2013-01-21 10:50:00,20.2,13.4,30.36,NNW,331,3.0,-999.0,66,0.00,,,0.00,Custom/Perl,2013-01-21 16:50:00,
2013-01-21 10:56:00,20.1,13.3,30.36,NNW,347,0.0,-999.0,66,0.00,,,0.00,Custom/Perl,2013-01-21 16:56:00,
2013-01-21 11:01:00,20.4,13.2,30.37,NNE,12,4.0,-999.0,64,0.00,,,0.00,Custom/Perl,2013-01-21 17:01:00,
2013-01-21 11:06:00,20.6,13.2,30.37,SE,143,0.0,-999.0,63,0.00,,,0.00,Custom/Perl,2013-01-21 17:06:00,
2013-01-21 11:11:00,20.7,13.1,30.37,North,7,9.0,-999.0,62,0.00,,,0.00,Custom/Perl,2013-01-21 17:11:00,
2013-01-21 11:16:00,20.5,12.9,30.36,WNW,297,0.0,-999.0,62,0.00,,,0.00,Custom/Perl,2013-01-21 17:16:00,
2013-01-21 11:22:00,20.8,13.2,30.37,North,349,4.0,-999.0,62,0.00,,,0.00,Custom/Perl,2013-01-21 17:22:00,
2013-01-21 11:27:00,20.8,13.0,30.38,NW,326,5.0,-999.0,61,0.00,,,0.00,Custom/Perl,2013-01-21 17:27:00,
2013-01-21 11:32:00,20.9,13.1,30.38,NNW,337,3.0,-999.0,61,0.00,,,0.00,Custom/Perl,2013-01-21 17:32:00,
2013-01-21 11:37:00,21.1,13.1,30.37,NNE,32,1.0,-999.0,60,0.00,,,0.00,Custom/Perl,2013-01-21 17:37:00,
2013-01-21 11:43:00,21.4,12.4,30.36,NW,308,2.0,-999.0,55,0.00,,,0.00,Custom/Perl,2013-01-21 17:43:00,
2013-01-21 11:48:00,21.2,12.2,30.35,NNW,330,5.0,-999.0,55,0.00,,,0.00,Custom/Perl,2013-01-21 17:48:00,
2013-01-21 11:53:00,21.5,11.9,30.35,NW,316,6.0,-999.0,52,0.00,,,0.00,Custom/Perl,2013-01-21 17:53:00,
2013-01-21 11:58:00,21.5,10.9,30.35,North,6,2.0,-999.0,47,0.00,,,0.00,Custom/Perl,2013-01-21 17:58:00,
2013-01-21 12:04:00,21.3,10.7,30.35,WNW,303,3.0,-999.0,47,0.00,,,0.00,Custom/Perl,2013-01-21 18:04:00,
2013-01-21 12:09:00,21.1,10.3,30.35,WNW,302,3.0,-999.0,46,0.00,,,0.00,Custom/Perl,2013-01-21 18:09:00,
2013-01-21 12:14:00,20.8,10.2,30.35,NW,311,4.0,-999.0,47,0.00,,,0.00,Custom/Perl,2013-01-21 18:14:00,
2013-01-21 12:19:00,20.9,10.1,30.35,NW,319,2.0,-999.0,46,0.00,,,0.00,Custom/Perl,2013-01-21 18:19:00,
2013-01-21 12:25:00,21.2,10.6,30.34,NNW,333,2.0,-999.0,47,0.00,,,0.00,Custom/Perl,2013-01-21 18:25:00,
2013-01-21 12:30:00,21.3,10.5,30.34,NW,316,3.0,-999.0,46,0.00,,,0.00,Custom/Perl,2013-01-21 18:30:00,
2013-01-21 12:35:00,21.1,10.5,30.35,NNW,337,2.0,-999.0,47,0.00,,,0.00,Custom/Perl,2013-01-21 18:35:00,
2013-01-21 12:40:00,21.3,10.7,30.35,NW,325,1.0,-999.0,47,0.00,,,0.00,Custom/Perl,2013-01-21 18:40:00,
2013-01-21 12:45:00,21.2,10.8,30.35,North,3,5.0,-999.0,48,0.00,,,0.00,Custom/Perl,2013-01-21 18:45:00,
2013-01-21 12:51:00,21.3,10.9,30.35,NW,304,3.0,-999.0,48,0.00,,,0.00,Custom/Perl,2013-01-21 18:51:00,
2013-01-21 12:56:00,21.7,11.3,30.35,NW,322,1.0,-999.0,48,0.00,,,0.00,Custom/Perl,2013-01-21 18:56:00,
2013-01-21 13:01:00,21.7,11.1,30.34,West,275,0.0,-999.0,47,0.00,,,0.00,Custom/Perl,2013-01-21 19:01:00,
2013-01-21 13:06:00,22.0,11.4,30.34,NW,308,2.0,-999.0,47,0.00,,,0.00,Custom/Perl,2013-01-21 19:06:00,
2013-01-21 13:11:00,22.1,11.5,30.34,NW,309,1.0,-999.0,47,0.00,,,0.00,Custom/Perl,2013-01-21 19:11:00,
2013-01-21 13:17:00,22.0,11.0,30.34,WNW,294,0.0,-999.0,45,0.00,,,0.00,Custom/Perl,2013-01-21 19:17:00,
2013-01-21 13:22:00,21.9,10.9,30.34,NNW,340,1.0,-999.0,45,0.00,,,0.00,Custom/Perl,2013-01-21 19:22:00,
2013-01-21 13:27:00,22.0,11.0,30.34,NW,311,3.0,-999.0,45,0.00,,,0.00,Custom/Perl,2013-01-21 19:27:00,
2013-01-21 13:32:00,21.9,10.7,30.34,NW,310,7.0,-999.0,44,0.00,,,0.00,Custom/Perl,2013-01-21 19:32:00,
2013-01-21 13:37:00,21.7,10.7,30.33,NNE,23,2.0,-999.0,45,0.00,,,0.00,Custom/Perl,2013-01-21 19:37:00,
2013-01-21 13:43:00,22.1,11.1,30.33,NW,306,3.0,-999.0,45,0.00,,,0.00,Custom/Perl,2013-01-21 19:43:00,
2013-01-21 13:48:00,21.8,10.8,30.33,NW,322,6.0,-999.0,45,0.00,,,0.00,Custom/Perl,2013-01-21 19:48:00,
2013-01-21 13:53:00,21.6,10.6,30.33,NW,326,1.0,-999.0,45,0.00,,,0.00,Custom/Perl,2013-01-21 19:53:00,
2013-01-21 13:58:00,21.4,10.6,30.32,NW,311,3.0,-999.0,46,0.00,,,0.00,Custom/Perl,2013-01-21 19:58:00,
2013-01-21 14:04:00,21.3,10.5,30.33,NW,309,4.0,-999.0,46,0.00,,,0.00,Custom/Perl,2013-01-21 20:04:00,
2013-01-21 14:09:00,21.3,10.5,30.33,WNW,300,4.0,-999.0,46,0.00,,,0.00,Custom/Perl,2013-01-21 20:09:00,
2013-01-21 14:14:00,20.9,10.1,30.33,NW,315,5.0,-999.0,46,0.00,,,0.00,Custom/Perl,2013-01-21 20:14:00,
2013-01-21 14:20:00,20.9,10.3,30.33,NW,311,2.0,-999.0,47,0.00,,,0.00,Custom/Perl,2013-01-21 20:20:00,
2013-01-21 14:25:00,20.9,10.3,30.33,NNE,23,5.0,-999.0,47,0.00,,,0.00,Custom/Perl,2013-01-21 20:25:00,
2013-01-21 14:30:00,21.0,10.2,30.33,NW,311,1.0,-999.0,46,0.00,,,0.00,Custom/Perl,2013-01-21 20:30:00,
2013-01-21 14:35:00,21.1,10.3,30.33,NNW,342,1.0,-999.0,46,0.00,,,0.00,Custom/Perl,2013-01-21 20:35:00,
2013-01-21 14:41:00,20.7,10.1,30.33,NNW,346,4.0,-999.0,47,0.00,,,0.00,Custom/Perl,2013-01-21 20:41:00,
2013-01-21 14:46:00,20.8,10.2,30.32,WNW,299,4.0,-999.0,47,0.00,,,0.00,Custom/Perl,2013-01-21 20:46:00,
2013-01-21 14:51:00,21.0,10.4,30.32,NW,319,3.0,-999.0,47,0.00,,,0.00,Custom/Perl,2013-01-21 20:51:00,
2013-01-21 14:56:00,20.6,9.8,30.32,NW,309,2.0,-999.0,46,0.00,,,0.00,Custom/Perl,2013-01-21 20:56:00,
2013-01-21 15:01:00,20.8,10.2,30.32,NNE,18,3.0,-999.0,47,0.00,,,0.00,Custom/Perl,2013-01-21 21:01:00,
2013-01-21 15:07:00,20.9,10.3,30.33,NW,324,3.0,-999.0,47,0.00,,,0.00,Custom/Perl,2013-01-21 21:07:00,
2013-01-21 15:12:00,20.8,10.2,30.32,NW,315,2.0,-999.0,47,0.00,,,0.00,Custom/Perl,2013-01-21 21:12:00,
2013-01-21 15:17:00,20.7,10.1,30.32,NW,305,1.0,-999.0,47,0.00,,,0.00,Custom/Perl,2013-01-21 21:17:00,
2013-01-21 15:23:00,20.8,10.4,30.32,NNW,335,1.0,-999.0,48,0.00,,,0.00,Custom/Perl,2013-01-21 21:23:00,
2013-01-21 15:28:00,21.1,10.7,30.32,NNW,336,0.0,-999.0,48,0.00,,,0.00,Custom/Perl,2013-01-21 21:28:00,
2013-01-21 15:33:00,20.7,10.3,30.32,ENE,66,4.0,-999.0,48,0.00,,,0.00,Custom/Perl,2013-01-21 21:33:00,
2013-01-21 15:38:00,21.0,11.0,30.31,NNW,338,2.0,-999.0,50,0.00,,,0.00,Custom/Perl,2013-01-21 21:38:00,
2013-01-21 15:44:00,21.4,11.2,30.31,NW,307,3.0,-999.0,49,0.00,,,0.00,Custom/Perl,2013-01-21 21:44:00,
2013-01-21 15:49:00,21.4,11.2,30.31,North,354,3.0,-999.0,49,0.00,,,0.00,Custom/Perl,2013-01-21 21:49:00,
2013-01-21 15:54:00,21.2,11.0,30.31,North,353,3.0,-999.0,49,0.00,,,0.00,Custom/Perl,2013-01-21 21:54:00,
2013-01-21 15:59:00,20.9,10.9,30.31,NW,326,2.0,-999.0,50,0.00,,,0.00,Custom/Perl,2013-01-21 21:59:00,
2013-01-21 16:05:00,20.8,10.8,30.30,NNW,328,4.0,-999.0,50,0.00,,,0.00,Custom/Perl,2013-01-21 22:05:00,
2013-01-21 16:10:00,20.6,10.8,30.31,NNW,335,5.0,-999.0,51,0.00,,,0.00,Custom/Perl,2013-01-21 22:10:00,
2013-01-21 16:15:00,20.3,10.7,30.31,NW,307,2.0,-999.0,52,0.00,,,0.00,Custom/Perl,2013-01-21 22:15:00,
2013-01-21 16:20:00,20.5,10.9,30.31,NW,319,3.0,-999.0,52,0.00,,,0.00,Custom/Perl,2013-01-21 22:20:00,
2013-01-21 16:26:00,20.3,10.7,30.31,North,11,1.0,-999.0,52,0.00,,,0.00,Custom/Perl,2013-01-21 22:26:00,
2013-01-21 16:31:00,20.0,10.4,30.31,WNW,302,5.0,-999.0,52,0.00,,,0.00,Custom/Perl,2013-01-21 22:31:00,
2013-01-21 16:36:00,19.8,10.4,30.31,WNW,293,2.0,-999.0,53,0.00,,,0.00,Custom/Perl,2013-01-21 22:36:00,
2013-01-21 16:41:00,19.9,10.5,30.31,NW,304,3.0,-999.0,53,0.00,,,0.00,Custom/Perl,2013-01-21 22:41:00,
2013-01-21 16:47:00,19.7,10.3,30.32,NW,313,3.0,-999.0,53,0.00,,,0.00,Custom/Perl,2013-01-21 22:47:00,
2013-01-21 16:52:00,19.6,10.2,30.31,NW,326,2.0,-999.0,53,0.00,,,0.00,Custom/Perl,2013-01-21 22:52:00,
2013-01-21 16:57:00,19.5,10.1,30.31,WNW,295,5.0,-999.0,53,0.00,,,0.00,Custom/Perl,2013-01-21 22:57:00,
2013-01-21 17:02:00,19.3,10.1,30.31,NW,319,3.0,-999.0,54,0.00,,,0.00,Custom/Perl,2013-01-21 23:02:00,
2013-01-21 17:08:00,19.4,10.0,30.31,WNW,300,3.0,-999.0,53,0.00,,,0.00,Custom/Perl,2013-01-21 23:08:00,
2013-01-21 17:13:00,19.2,10.0,30.30,NE,55,2.0,-999.0,54,0.00,,,0.00,Custom/Perl,2013-01-21 23:13:00,
2013-01-21 17:18:00,19.0,9.8,30.30,West,262,1.0,-999.0,54,0.00,,,0.00,Custom/Perl,2013-01-21 23:18:00,
2013-01-21 17:23:00,18.8,9.6,30.30,NW,309,3.0,-999.0,54,0.00,,,0.00,Custom/Perl,2013-01-21 23:23:00,
2013-01-21 17:29:00,18.5,9.5,30.30,NW,323,2.0,-999.0,55,0.00,,,0.00,Custom/Perl,2013-01-21 23:29:00,
2013-01-21 17:34:00,18.3,9.3,30.30,WNW,289,3.0,-999.0,55,0.00,,,0.00,Custom/Perl,2013-01-21 23:34:00,
2013-01-21 17:39:00,18.2,9.2,30.30,North,349,0.0,-999.0,55,0.00,,,0.00,Custom/Perl,2013-01-21 23:39:00,
2013-01-21 17:45:00,18.1,9.1,30.30,NNW,345,2.0,-999.0,55,0.00,,,0.00,Custom/Perl,2013-01-21 23:45:00,
2013-01-21 17:50:00,17.8,9.0,30.30,NW,314,2.0,-999.0,56,0.00,,,0.00,Custom/Perl,2013-01-21 23:50:00,
2013-01-21 17:55:00,17.4,8.8,30.30,NW,309,2.0,-999.0,57,0.00,,,0.00,Custom/Perl,2013-01-21 23:55:00,
2013-01-21 18:00:00,17.2,8.6,30.30,WNW,290,1.0,-999.0,57,0.00,,,0.00,Custom/Perl,2013-01-22 00:00:00,
2013-01-21 18:05:00,16.9,8.5,30.30,North,355,0.0,-999.0,58,0.00,,,0.00,Custom/Perl,2013-01-22 00:05:00,
2013-01-21 18:11:00,16.8,8.4,30.31,NNE,15,0.0,-999.0,58,0.00,,,0.00,Custom/Perl,2013-01-22 00:11:00,
2013-01-21 18:16:00,16.6,8.4,30.31,WNW,300,1.0,-999.0,59,0.00,,,0.00,Custom/Perl,2013-01-22 00:16:00,
2013-01-21 18:21:00,16.4,8.2,30.30,NW,315,0.0,-999.0,59,0.00,,,0.00,Custom/Perl,2013-01-22 00:21:00,
2013-01-21 18:26:00,16.2,8.2,30.30,ENE,63,0.0,-999.0,60,0.00,,,0.00,Custom/Perl,2013-01-22 00:26:00,
2013-01-21 18:31:00,16.0,8.2,30.31,NW,322,0.0,-999.0,61,0.00,,,0.00,Custom/Perl,2013-01-22 00:31:00,
2013-01-21 18:37:00,15.9,8.1,30.31,NE,40,0.0,-999.0,61,0.00,,,0.00,Custom/Perl,2013-01-22 00:37:00,
2013-01-21 18:42:00,15.7,7.9,30.30,NE,40,0.0,-999.0,61,0.00,,,0.00,Custom/Perl,2013-01-22 00:42:00,
2013-01-21 18:47:00,15.5,7.9,30.30,NE,40,0.0,-999.0,62,0.00,,,0.00,Custom/Perl,2013-01-22 00:47:00,
2013-01-21 18:52:00,15.5,7.9,30.30,NNE,25,0.0,-999.0,62,0.00,,,0.00,Custom/Perl,2013-01-22 00:52:00,
2013-01-21 18:58:00,15.5,8.1,30.30,NNE,25,0.0,-999.0,63,0.00,,,0.00,Custom/Perl,2013-01-22 00:58:00,
2013-01-21 19:03:00,15.6,8.2,30.30,NNE,25,0.0,-999.0,63,0.00,,,0.00,Custom/Perl,2013-01-22 01:03:00,
2013-01-21 19:08:00,15.5,8.1,30.30,NNE,25,0.0,-999.0,63,0.00,,,0.00,Custom/Perl,2013-01-22 01:08:00,
2013-01-21 19:13:00,15.7,8.3,30.30,NE,39,0.0,-999.0,63,0.00,,,0.00,Custom/Perl,2013-01-22 01:13:00,
2013-01-21 19:18:00,15.7,8.3,30.29,NNE,25,0.0,-999.0,63,0.00,,,0.00,Custom/Perl,2013-01-22 01:18:00,
2013-01-21 19:24:00,15.6,8.2,30.30,North,4,0.0,-999.0,63,0.00,,,0.00,Custom/Perl,2013-01-22 01:24:00,
2013-01-21 19:29:00,15.6,8.2,30.29,North,4,0.0,-999.0,63,0.00,,,0.00,Custom/Perl,2013-01-22 01:29:00,
2013-01-21 19:34:00,15.6,8.2,30.30,North,4,0.0,-999.0,63,0.00,,,0.00,Custom/Perl,2013-01-22 01:34:00,
2013-01-21 19:39:00,15.6,8.2,30.30,North,4,0.0,-999.0,63,0.00,,,0.00,Custom/Perl,2013-01-22 01:39:00,
2013-01-21 19:45:00,15.4,8.2,30.30,North,4,0.0,-999.0,64,0.00,,,0.00,Custom/Perl,2013-01-22 01:45:00,
2013-01-21 19:50:00,15.2,8.2,30.30,North,4,0.0,-999.0,65,0.00,,,0.00,Custom/Perl,2013-01-22 01:50:00,
2013-01-21 19:55:00,15.1,8.1,30.30,North,4,0.0,-999.0,65,0.00,,,0.00,Custom/Perl,2013-01-22 01:55:00,
2013-01-21 20:00:00,14.9,7.9,30.30,North,4,0.0,-999.0,65,0.00,,,0.00,Custom/Perl,2013-01-22 02:00:00,
2013-01-21 20:05:00,14.7,7.9,30.30,North,4,0.0,-999.0,66,0.00,,,0.00,Custom/Perl,2013-01-22 02:05:00,
2013-01-21 20:11:00,14.5,7.7,30.30,North,4,0.0,-999.0,66,0.00,,,0.00,Custom/Perl,2013-01-22 02:11:00,
2013-01-21 20:16:00,14.4,7.6,30.29,North,4,0.0,-999.0,66,0.00,,,0.00,Custom/Perl,2013-01-22 02:16:00,
2013-01-21 20:21:00,14.2,7.6,30.30,North,4,0.0,-999.0,67,0.00,,,0.00,Custom/Perl,2013-01-22 02:21:00,
2013-01-21 20:26:00,14.0,7.6,30.30,North,4,0.0,-999.0,68,0.00,,,0.00,Custom/Perl,2013-01-22 02:26:00,
2013-01-21 20:31:00,13.9,7.5,30.30,North,4,0.0,-999.0,68,0.00,,,0.00,Custom/Perl,2013-01-22 02:31:00,
2013-01-21 20:37:00,13.6,7.4,30.29,NW,325,0.0,-999.0,69,0.00,,,0.00,Custom/Perl,2013-01-22 02:37:00,
2013-01-21 20:42:00,13.5,7.3,30.30,NW,325,0.0,-999.0,69,0.00,,,0.00,Custom/Perl,2013-01-22 02:42:00,
2013-01-21 20:47:00,13.4,7.4,30.30,NW,325,0.0,-999.0,70,0.00,,,0.00,Custom/Perl,2013-01-22 02:47:00,
2013-01-21 20:52:00,13.3,7.5,30.30,NW,325,0.0,-999.0,71,0.00,,,0.00,Custom/Perl,2013-01-22 02:52:00,
2013-01-21 20:57:00,13.0,7.4,30.30,NW,325,0.0,-999.0,72,0.00,,,0.00,Custom/Perl,2013-01-22 02:57:00,
2013-01-21 21:03:00,13.1,7.5,30.31,NW,325,0.0,-999.0,72,0.00,,,0.00,Custom/Perl,2013-01-22 03:03:00,
2013-01-21 21:08:00,13.4,7.8,30.31,NW,325,0.0,-999.0,72,0.00,,,0.00,Custom/Perl,2013-01-22 03:08:00,
2013-01-21 21:13:00,13.7,8.5,30.31,NW,325,0.0,-999.0,74,0.00,,,0.00,Custom/Perl,2013-01-22 03:13:00,
2013-01-21 21:19:00,13.8,8.2,30.31,NE,34,0.0,-999.0,72,0.00,,,0.00,Custom/Perl,2013-01-22 03:19:00,
2013-01-21 21:24:00,14.2,8.4,30.31,NW,316,0.0,-999.0,71,0.00,,,0.00,Custom/Perl,2013-01-22 03:24:00,
2013-01-21 21:29:00,14.5,8.5,30.31,North,8,0.0,-999.0,70,0.00,,,0.00,Custom/Perl,2013-01-22 03:29:00,
2013-01-21 21:34:00,14.7,8.5,30.31,North,8,0.0,-999.0,69,0.00,,,0.00,Custom/Perl,2013-01-22 03:34:00,
2013-01-21 21:39:00,14.8,8.4,30.31,NW,313,0.0,-999.0,68,0.00,,,0.00,Custom/Perl,2013-01-22 03:39:00,
2013-01-21 21:45:00,15.0,8.6,30.31,NNE,17,0.0,-999.0,68,0.00,,,0.00,Custom/Perl,2013-01-22 03:45:00,
2013-01-21 21:50:00,15.1,8.7,30.31,NNW,342,0.0,-999.0,68,0.00,,,0.00,Custom/Perl,2013-01-22 03:50:00,
2013-01-21 21:55:00,15.2,8.8,30.31,NW,309,1.0,-999.0,68,0.00,,,0.00,Custom/Perl,2013-01-22 03:55:00,
2013-01-21 22:00:00,15.4,9.0,30.31,NNE,25,0.0,-999.0,68,0.00,,,0.00,Custom/Perl,2013-01-22 04:00:00,
2013-01-21 22:05:00,15.6,9.0,30.32,NNE,30,1.0,-999.0,67,0.00,,,0.00,Custom/Perl,2013-01-22 04:05:00,
2013-01-21 22:11:00,15.7,8.9,30.31,NW,309,2.0,-999.0,66,0.00,,,0.00,Custom/Perl,2013-01-22 04:11:00,
2013-01-21 22:16:00,15.9,9.1,30.32,North,351,0.0,-999.0,66,0.00,,,0.00,Custom/Perl,2013-01-22 04:16:00,
2013-01-21 22:21:00,16.0,9.2,30.32,NW,306,0.0,-999.0,66,0.00,,,0.00,Custom/Perl,2013-01-22 04:21:00,
2013-01-21 22:26:00,16.1,9.3,30.32,NW,317,0.0,-999.0,66,0.00,,,0.00,Custom/Perl,2013-01-22 04:26:00,
2013-01-21 22:31:00,16.2,9.0,30.32,NNW,345,0.0,-999.0,64,0.00,,,0.00,Custom/Perl,2013-01-22 04:31:00,
2013-01-21 22:37:00,16.2,9.0,30.32,North,356,0.0,-999.0,64,0.00,,,0.00,Custom/Perl,2013-01-22 04:37:00,
2013-01-21 22:42:00,16.4,9.2,30.32,NNW,344,0.0,-999.0,64,0.00,,,0.00,Custom/Perl,2013-01-22 04:42:00,
2013-01-21 22:47:00,16.4,9.2,30.32,NNE,28,1.0,-999.0,64,0.00,,,0.00,Custom/Perl,2013-01-22 04:47:00,
2013-01-21 22:53:00,16.4,9.0,30.32,North,356,1.0,-999.0,63,0.00,,,0.00,Custom/Perl,2013-01-22 04:53:00,
2013-01-21 22:58:00,16.4,9.0,30.31,NNW,342,0.0,-999.0,63,0.00,,,0.00,Custom/Perl,2013-01-22 04:58:00,
2013-01-21 23:00:00,16.4,9.0,30.31,NNE,15,1.0,-999.0,63,0.00,,,0.00,Custom/Perl,2013-01-22 05:00:00,
2013-01-21 23:01:00,16.4,9.0,30.31,NNE,18,1.0,-999.0,63,0.00,,,0.00,Custom/Perl,2013-01-22 05:01:00,
2013-01-21 23:02:00,16.4,9.0,30.31,NW,325,1.0,-999.0,63,0.00,,,0.00,Custom/Perl,2013-01-22 05:02:00,
2013-01-21 23:03:00,16.4,9.0,30.31,NW,314,0.0,-999.0,63,0.00,,,0.00,Custom/Perl,2013-01-22 05:03:00,
2013-01-21 23:09:00,16.4,9.0,30.31,North,8,0.0,-999.0,63,0.00,,,0.00,Custom/Perl,2013-01-22 05:09:00,
2013-01-21 23:14:00,16.4,9.0,30.31,NW,314,0.0,-999.0,63,0.00,,,0.00,Custom/Perl,2013-01-22 05:14:00,
2013-01-21 23:19:00,16.4,9.2,30.30,North,351,1.0,-999.0,64,0.00,,,0.00,Custom/Perl,2013-01-22 05:19:00,
2013-01-21 23:24:00,16.4,9.0,30.30,WNW,299,0.0,-999.0,63,0.00,,,0.00,Custom/Perl,2013-01-22 05:24:00,
2013-01-21 23:30:00,16.4,9.2,30.30,NW,318,0.0,-999.0,64,0.00,,,0.00,Custom/Perl,2013-01-22 05:30:00,
2013-01-21 23:35:00,16.4,8.8,30.30,NNE,29,2.0,-999.0,62,0.00,,,0.00,Custom/Perl,2013-01-22 05:35:00,
2013-01-21 23:40:00,16.4,8.8,30.30,NW,304,2.0,-999.0,62,0.00,,,0.00,Custom/Perl,2013-01-22 05:40:00,
2013-01-21 23:45:00,16.4,9.0,30.30,North,9,0.0,-999.0,63,0.00,,,0.00,Custom/Perl,2013-01-22 05:45:00,
2013-01-21 23:50:00,16.4,9.0,30.29,NW,308,1.0,-999.0,63,0.00,,,0.00,Custom/Perl,2013-01-22 05:50:00,
2013-01-21 23:56:00,16.4,9.0,30.30,WNW,303,1.0,-999.0,63,0.00,,,0.00,Custom/Perl,2013-01-22 05:56:00,